Location: Pitton
(51.0667°N, 1.7000°W)
Time: 20:57:47
(UTC+00:00)

H-2A R/B - Pass Details

Date: 17 September 2019
Orbit: 734 x 836 km, 98.3° (Epoch: 14 October)

Event Time Altitude Azimuth Distance (km) Brightness Sun altitude
Exits shadow 19:35:31 10° 150° (SSE) 2,248 4.0 -12.8°
Reaches altitude 10° 19:35:32 10° 150° (SSE) 2,243 4.0 -12.8°
Maximum altitude 19:40:23 63° 71° (ENE) 835 2.0 -13.5°
Drops below altitude 10° 19:45:22 10° 351° (N) 2,301 4.9 -14.3°
Sets 19:47:43 0° 348° (NNW) 3,246 5.8 -14.6°
